This is the latest recevied weather packets stored in our database for station/object DF9PM-13. If no packets are shown the sender has not sent any weather packets the latest 10 day(s).
| Time | Temp. | Humidity | Pressure | Rain* | Wind** | Luminosity | Snow |
|---|---|---|---|---|---|---|---|
| 1777480735 | 18.89° C | 25% | 1022.7 hPa | - | - | - | - |
| 1777480434 | 18.89° C | 24% | 1022.7 hPa | - | - | - | - |
| 1777480134 | 19.44° C | 24% | 1022.7 hPa | - | - | - | - |
| 1777479834 | 19.44° C | 24% | 1022.7 hPa | - | - | - | - |
| 1777479534 | 19.44° C | 24% | 1022.7 hPa | - | - | - | - |
| 1777479234 | 20° C | 24% | 1022.7 hPa | - | - | - | - |
| 1777478934 | 20° C | 23% | 1022.5 hPa | - | - | - | - |
| 1777478634 | 20° C | 22% | 1022.6 hPa | - | - | - | - |
| 1777478334 | 20.56° C | 22% | 1022.5 hPa | - | - | - | - |
| 1777477134 | 20.56° C | 20% | 1022.5 hPa | - | - | - | - |
| 1777476834 | 20.56° C | 20% | 1022.5 hPa | - | - | - | - |
| 1777476534 | 21.11° C | 20% | 1022.6 hPa | - | - | - | - |
| 1777475934 | 21.11° C | 20% | 1022.6 hPa | - | - | - | - |
| 1777475333 | 21.67° C | 20% | 1022.7 hPa | - | - | - | - |
| 1777474733 | 21.67° C | 19% | 1022.6 hPa | - | - | - | - |
| 1777474433 | 22.78° C | 18% | 1022.8 hPa | - | - | - | - |
| 1777473533 | 22.22° C | 19% | 1022.7 hPa | - | - | - | - |
| 1777472333 | 21.67° C | 19% | 1022.8 hPa | - | - | - | - |
| 1777472033 | 21.67° C | 20% | 1022.8 hPa | - | - | - | - |
| 1777471733 | 22.22° C | 18% | 1022.9 hPa | - | - | - | - |
| 1777471433 | 22.22° C | 19% | 1022.8 hPa | - | - | - | - |
| 1777471133 | 21.67° C | 19% | 1022.9 hPa | - | - | - | - |
| 1777470832 | 21.67° C | 19% | 1022.9 hPa | - | - | - | - |
| 1777469932 | 22.22° C | 18% | 1022.8 hPa | - | - | - | - |
| 1777469632 | 22.78° C | 17% | 1023 hPa | - | - | - | - |
* Rain since midnight (hover to see other rain measurements)
** Current wind speed in m/s (hover to see current wind gust speed)